Wind_Speed
30 29 29 29 29 29 29 29 28 28 27 25 24 24 22 20 19 18 18 19 19 19 19 19 19 20 20 21 21 21 22 22 22 22 23 24 23 23 22 23 23 24 24 24
31 31 30 30 29 29 28 28 29 28 27 27 26 24 23 23 22 20 19 19 19 19 20 21 21 20 21 21 21 22 23 23 23 24 25 25 25 25 25 25 25 25 25 26
34 33 31 29 29 29 31 29 29 28 27 27 26 24 24 24 23 21 20 19 19 20 20 20 20 20 21 21 21 22 23 23 24 25 25 25 25 25 25 26 26 25 26 26
35 33 33 30 29 30 31 30 30 29 28 27 25 24 24 24 23 23 22 20 20 21 20 20 21 22 22 22 22 22 23 24 24 25 25 25 25 25 25 26 26 26 26 25
35 34 33 30 29 29 30 30 30 30 29 27 26 25 24 22 22 22 21 21 20 20 20 21 21 22 23 22 22 23 24 24 25 26 26 26 25 26 26 26 26 26 26 26
36 36 35 32 30 30 31 32 31 30 29 28 27 26 25 24 24 24 24 23 21 21 21 21 22 23 22 22 23 24 25 26 26 26 26 25 25 26 26 26 26 26 26 26
37 37 36 33 32 31 32 32 31 31 30 29 29 27 26 25 25 25 24 23 22 23 23 23 24 24 23 24 24 25 26 26 26 26 26 26 26 26 26 26 26 26 27 27
37 38 37 34 33 32 32 31 30 30 30 30 30 29 28 26 25 25 24 24 24 24 23 23 23 24 24 24 25 26 26 26 26 26 26 26 26 25 25 26 26 26 26 26
37 37 35 35 35 34 32 31 29 29 29 30 30 29 29 28 27 26 26 25 25 24 25 25 24 24 24 25 25 25 25 26 26 26 26 26 26 26 26 26 26 26 25 25
36 36 36 35 36 35 34 32 30 29 29 29 30 29 28 28 28 27 27 26 26 26 26 26 25 25 25 25 25 26 26 27 26 26 26 26 26 26 26 26 25 25 25 24
37 36 36 36 35 35 33 32 31 30 29 29 30 30 30 29 29 29 29 29 27 26 26 26 26 26 25 25 26 27 27 27 26 25 26 26 26 26 26 26 26 26 26 25
36 35 35 35 35 34 33 32 31 31 30 30 30 30 30 30 29 29 30 29 28 27 27 26 26 26 26 26 26 27 27 26 25 25 26 27 27 26 26 26 27 27 27 26
35 35 35 36 36 35 34 34 34 33 31 31 31 31 31 31 30 30 30 28 28 27 27 27 27 27 27 26 27 27 27 27 26 26 26 27 27 26 26 27 28 28 27 26
35 36 36 36 36 36 34 33 33 33 32 31 31 31 30 30 30 30 29 28 27 27 27 27 27 27 27 27 27 27 27 27 27 27 27 27 27 27 27 27 28 27 26 26
32 35 36 35 36 37 36 35 34 33 32 31 31 31 31 31 31 29 28 28 28 27 28 28 27 27 27 27 27 27 27 27 27 27 27 27 27 27 28 28 28 27 26 26
31 32 34 35 35 36 35 35 35 34 33 31 31 31 31 31 31 29 28 27 27 27 27 27 27 27 27 26 26 27 27 27 27 27 26 26 27 27 28 27 27 26 26 26
30 30 31 33 34 34 34 34 34 34 33 32 32 32 31 31 30 29 29 29 27 26 27 27 28 27 27 27 27 27 27 27 27 27 26 26 26 26 26 26 26 25 26 26
30 29 29 29 31 33 34 34 34 33 32 31 32 32 31 31 30 29 28 27 26 27 27 27 27 28 28 27 27 27 27 27 27 27 26 26 26 26 26 26 25 25 25 25
29 29 30 29 29 30 31 32 32 32 31 31 30 30 30 30 30 30 29 27 26 27 27 27 27 28 28 28 28 28 27 27 27 27 26 26 26 26 26 26 26 25 25 25
28 28 29 28 28 29 30 30 31 30 30 29 29 29 30 30 29 28 27 27 27 27 27 27 27 27 27 27 27 28 28 28 27 27 27 26 26 26 25 26 26 25 25 25
24 25 26 26 26 26 26 27 28 29 28 29 29 28 28 28 28 27 26 26 27 27 27 27 28 28 27 27 27 27 28 28 27 27 26 26 25 25 25 26 26 25 25 25
21 22 23 23 22 23 24 25 26 27 28 28 28 27 27 27 26 26 26 26 26 26 27 27 27 27 27 27 27 28 27 26 26 27 27 26 26 26 26 26 26 26 26 26
19 20 20 20 20 20 20 22 24 25 25 26 25 25 25 25 25 25 25 25 26 26 26 27 27 27 27 27 27 27 27 27 28 28 27 27 28 28 27 27 27 27 27 27
18 18 18 19 19 19 19 19 21 22 23 24 25 25 24 24 25 25 25 25 25 26 26 26 26 27 27 27 27 27 27 27 27 27 28 28 28 28 28 28 29 29 29 28
17 17 17 17 17 18 18 19 19 20 21 23 23 24 23 23 23 24 24 24 24 25 25 25 26 26 27 26 25 25 25 26 27 28 28 29 29 29 29 29 29 29 28 28
15 17 18 18 17 17 18 19 19 19 20 20 21 21 21 22 23 24 24 24 23 23 23 23 23 23 24 24 25 25 26 26 26 27 28 29 29 29 30 30 30 29 29 28
15 15 16 16 17 17 17 18 18 18 18 18 20 20 20 21 22 23 23 22 22 22 22 22 22 23 23 24 24 25 27 27 27 28 29 29 29 29 29 29 28 28 28 28
Wind_Direction
244 244 243 241 238 238 239 244 248 252 256 259 264 267 273 277 279 272 271 272 276 280 285 282 281 282 283 285 286 289 291 294 296 297 298 297 293 290 289 289 288 287 285 285
245 247 248 245 240 238 241 244 249 253 256 259 263 266 269 274 278 273 269 269 271 280 286 285 283 284 282 281 283 287 290 293 294 296 298 297 294 291 290 289 288 288 287 286
247 248 249 246 241 238 240 244 249 252 255 259 262 266 268 271 277 279 277 274 277 280 284 285 284 285 285 285 285 287 290 292 295 297 298 297 296 293 292 293 292 289 289 287
248 250 251 249 244 242 243 246 250 253 253 256 260 266 268 265 269 274 274 276 278 279 281 284 284 285 285 285 286 289 292 294 296 297 297 297 296 297 298 298 295 291 289 289
249 250 251 249 248 246 246 247 250 252 254 258 260 263 263 262 268 273 275 278 277 279 281 283 284 284 284 285 286 288 291 293 295 296 297 297 298 298 298 297 296 294 291 288
250 252 252 250 249 248 250 249 249 252 255 258 261 261 263 267 273 277 278 276 276 278 282 284 283 285 283 283 286 288 289 291 293 295 296 295 296 296 297 296 295 294 293 290
249 252 252 252 251 251 252 252 253 254 255 257 258 261 265 267 269 272 274 274 275 276 280 282 282 283 284 284 287 288 288 290 292 294 295 294 294 295 295 295 295 294 293 292
248 250 251 251 251 251 252 252 252 253 254 253 255 258 262 265 267 267 269 272 274 276 279 281 281 283 285 286 288 287 287 289 291 293 295 295 295 296 296 296 294 294 292 290
249 251 251 250 251 252 252 252 252 251 251 251 252 255 258 261 263 264 265 269 271 274 277 278 279 282 285 287 291 291 289 289 290 293 294 295 295 294 294 297 296 294 293 292
250 251 252 251 251 251 250 250 249 249 248 249 250 252 254 257 262 262 263 264 267 272 274 275 279 281 284 287 290 291 289 290 291 292 293 293 294 294 294 294 295 294 292 292
250 251 250 250 251 250 250 249 248 248 248 250 251 253 255 258 260 260 260 261 264 269 271 273 276 280 281 284 289 291 291 291 290 291 293 293 293 293 294 294 293 292 292 294
250 251 251 251 250 250 250 250 250 249 248 251 252 254 255 256 256 257 257 260 263 267 269 272 274 277 280 284 287 290 290 290 290 293 294 295 295 294 294 293 293 293 293 293
250 250 252 252 249 250 251 250 251 249 249 251 253 256 256 256 256 256 257 259 262 266 268 271 273 276 280 283 285 288 289 289 290 293 294 295 297 296 294 292 292 291 292 292
248 249 250 250 249 250 251 250 249 249 250 252 255 257 257 259 258 257 257 258 261 265 268 272 273 275 279 282 284 286 289 291 291 293 294 295 295 295 294 292 290 290 289 290
246 246 246 247 248 248 249 249 249 250 250 253 256 258 259 259 257 256 256 255 259 263 266 270 272 274 278 283 285 287 289 292 293 294 294 294 295 294 293 292 291 289 287 288
248 247 245 245 246 248 249 250 250 251 250 252 254 257 257 258 256 257 256 258 262 264 266 269 273 276 279 282 284 286 288 289 291 293 294 294 294 294 293 291 290 288 287 289
248 248 248 247 247 248 249 249 249 250 250 251 252 254 257 259 259 259 260 260 261 262 265 269 272 274 277 280 282 285 286 288 290 292 293 294 295 296 296 295 293 290 289 289
248 248 248 247 247 247 247 247 247 248 248 249 251 252 255 255 257 259 259 260 260 262 266 268 271 273 276 278 281 284 286 287 288 290 291 293 295 296 297 296 295 293 290 289
249 251 251 251 249 247 245 243 242 244 246 247 249 251 253 254 257 259 259 258 260 263 266 269 271 274 276 278 281 283 284 285 287 289 290 292 294 294 295 295 294 294 292 291
249 249 249 249 247 246 245 243 243 246 247 247 249 251 253 254 256 256 257 258 260 263 265 268 271 274 278 279 280 282 284 285 286 289 292 294 295 295 294 294 294 293 294 294
244 243 243 243 242 241 242 243 243 246 248 247 249 251 253 253 254 256 257 258 260 263 265 267 269 274 277 279 280 282 284 283 285 288 290 292 294 295 295 295 295 296 296 297
240 239 238 238 239 239 240 243 244 246 248 249 248 249 252 253 253 255 256 258 260 263 266 267 270 273 274 276 278 280 282 283 285 287 289 290 291 293 294 295 296 297 297 297
240 238 237 237 238 240 243 244 245 246 247 248 251 251 253 253 254 256 257 258 261 264 267 269 271 273 274 275 276 278 280 281 284 286 287 289 290 292 294 295 296 297 297 297
237 238 239 238 238 240 243 245 248 248 249 249 251 251 254 255 256 258 259 259 262 265 269 271 272 274 275 275 276 277 279 281 284 285 287 288 289 290 292 293 293 295 295 295
236 237 239 241 242 241 241 244 247 251 254 252 249 249 252 256 258 259 261 262 264 267 269 270 272 273 276 277 276 278 280 282 283 285 286 288 289 289 290 293 295 296 296 294
240 241 242 244 245 245 246 248 250 252 254 253 250 251 253 254 256 259 261 263 264 266 269 271 272 274 277 279 279 281 284 284 284 285 287 288 289 288 289 292 294 295 295 294
239 240 241 243 245 247 246 247 250 251 252 254 252 251 253 256 258 260 262 263 263 266 269 272 274 277 279 281 283 285 284 284 285 287 289 290 290 291 292 294 295 296 298 298
Height
5856 5858 5860 5862 5864 5866 5867 5868 5869 5871 5871 5873 5874 5875 5876 5876 5876 5877 5877 5877 5877 5877 5876 5876 5875 5874 5873 5872 5871 5870 5869 5867 5865 5864 5861 5859 5857 5854 5853 5852 5850 5849 5847 5846
5849 5851 5853 5855 5857 5859 5860 5861 5862 5864 5866 5867 5867 5869 5869 5870 5870 5870 5871 5871 5871 5871 5871 5870 5869 5869 5868 5866 5865 5864 5863 5861 5859 5858 5855 5853 5850 5848 5847 5845 5843 5841 5840 5838
5842 5843 5845 5847 5850 5852 5853 5854 5856 5857 5860 5860 5861 5862 5863 5863 5864 5864 5864 5864 5864 5865 5864 5864 5863 5863 5862 5861 5859 5858 5856 5855 5853 5851 5849 5847 5844 5842 5840 5838 5836 5834 5832 5830
5833 5836 5837 5842 5843 5844 5845 5847 5849 5850 5853 5854 5855 5856 5856 5857 5857 5858 5858 5858 5859 5859 5858 5858 5858 5857 5856 5854 5853 5851 5850 5848 5846 5844 5842 5840 5838 5835 5833 5831 5828 5826 5825 5823
5825 5827 5828 5833 5835 5836 5838 5839 5841 5843 5845 5846 5847 5849 5849 5849 5850 5851 5852 5852 5853 5853 5852 5852 5851 5850 5849 5847 5846 5845 5843 5842 5840 5838 5835 5833 5831 5828 5826 5824 5821 5819 5817 5815
5816 5818 5820 5825 5827 5828 5831 5831 5834 5836 5838 5840 5841 5842 5844 5844 5844 5845 5845 5845 5845 5846 5845 5845 5844 5844 5842 5840 5839 5838 5837 5835 5834 5831 5829 5826 5824 5821 5819 5816 5814 5811 5809 5807
5807 5808 5811 5815 5817 5819 5822 5824 5827 5828 5830 5832 5834 5836 5837 5837 5838 5838 5838 5838 5838 5839 5839 5838 5838 5837 5836 5834 5832 5831 5830 5828 5826 5824 5821 5819 5817 5814 5812 5809 5807 5804 5801 5799
5797 5799 5804 5806 5807 5810 5813 5816 5818 5820 5822 5823 5825 5827 5829 5830 5830 5831 5832 5832 5832 5832 5832 5831 5831 5830 5829 5828 5826 5824 5822 5820 5818 5816 5814 5811 5809 5807 5804 5801 5799 5796 5793 5791
5788 5792 5794 5796 5798 5800 5803 5806 5808 5811 5813 5815 5817 5819 5820 5821 5822 5823 5824 5825 5825 5825 5825 5825 5824 5823 5822 5820 5818 5816 5814 5813 5810 5808 5806 5803 5801 5799 5796 5794 5791 5788 5786 5783
5778 5780 5783 5786 5788 5791 5794 5796 5799 5802 5805 5807 5809 5811 5812 5813 5814 5815 5816 5817 5817 5818 5818 5817 5817 5816 5815 5813 5811 5809 5807 5805 5802 5800 5798 5796 5793 5791 5788 5786 5783 5781 5778 5776
5768 5771 5773 5776 5778 5782 5785 5787 5790 5793 5795 5798 5800 5802 5803 5804 5806 5807 5807 5809 5810 5810 5810 5810 5809 5809 5808 5806 5804 5802 5799 5797 5795 5793 5791 5788 5786 5783 5781 5778 5776 5774 5771 5769
5759 5762 5764 5767 5769 5772 5775 5778 5781 5784 5787 5789 5791 5793 5794 5796 5797 5798 5798 5800 5801 5802 5802 5802 5801 5800 5800 5798 5797 5794 5792 5789 5787 5785 5783 5781 5778 5776 5773 5771 5768 5766 5763 5761
5749 5752 5754 5756 5759 5762 5765 5768 5771 5775 5777 5780 5782 5784 5785 5787 5788 5789 5789 5790 5792 5792 5793 5793 5793 5792 5792 5790 5789 5787 5784 5782 5779 5778 5775 5773 5770 5768 5766 5763 5761 5758 5756 5754
5739 5741 5743 5746 5749 5753 5755 5758 5761 5765 5768 5770 5773 5775 5776 5778 5779 5779 5779 5782 5783 5784 5784 5784 5784 5784 5783 5782 5780 5778 5776 5774 5772 5769 5767 5765 5762 5760 5757 5755 5753 5750 5748 5746
5729 5731 5733 5736 5739 5742 5745 5748 5752 5756 5759 5762 5764 5766 5767 5768 5769 5770 5771 5773 5774 5774 5775 5776 5776 5775 5775 5773 5772 5770 5768 5766 5764 5761 5759 5757 5754 5752 5749 5747 5744 5742 5740 5738
5720 5721 5722 5726 5729 5732 5735 5739 5743 5747 5751 5753 5755 5757 5759 5759 5761 5762 5763 5763 5764 5765 5767 5767 5767 5767 5766 5765 5764 5762 5760 5758 5756 5753 5751 5748 5746 5743 5741 5738 5735 5733 5731 5729
5711 5712 5714 5717 5720 5723 5727 5730 5734 5738 5741 5744 5747 5749 5750 5751 5753 5755 5756 5756 5756 5758 5758 5759 5759 5759 5758 5757 5755 5754 5752 5750 5748 5745 5743 5740 5737 5735 5732 5730 5727 5725 5723 5721
5702 5704 5706 5709 5711 5715 5718 5722 5725 5729 5732 5735 5737 5740 5742 5743 5745 5746 5747 5747 5748 5749 5750 5750 5751 5750 5750 5748 5747 5745 5744 5742 5740 5738 5735 5733 5730 5727 5725 5722 5719 5717 5715 5712
5692 5695 5698 5701 5703 5706 5709 5713 5716 5720 5723 5726 5729 5731 5733 5735 5736 5737 5738 5738 5740 5741 5742 5742 5742 5742 5741 5739 5738 5737 5735 5733 5732 5730 5727 5725 5722 5720 5717 5714 5712 5709 5707 5705
5684 5687 5689 5692 5695 5698 5702 5705 5709 5712 5715 5718 5720 5723 5724 5726 5727 5728 5729 5730 5732 5732 5733 5733 5733 5733 5732 5730 5729 5728 5727 5725 5723 5721 5719 5717 5715 5712 5709 5707 5704 5702 5699 5696
5676 5679 5682 5684 5688 5691 5694 5698 5702 5705 5708 5710 5712 5714 5716 5717 5718 5719 5721 5722 5723 5723 5724 5724 5725 5724 5723 5722 5721 5720 5718 5716 5715 5713 5711 5709 5707 5704 5701 5699 5697 5694 5691 5689
5670 5673 5675 5678 5681 5685 5688 5691 5694 5697 5699 5701 5703 5705 5707 5708 5710 5711 5712 5714 5714 5715 5715 5715 5715 5715 5714 5713 5712 5711 5710 5708 5706 5704 5703 5701 5698 5696 5693 5691 5688 5686 5683 5681
5666 5668 5670 5673 5676 5679 5682 5684 5687 5689 5691 5693 5694 5697 5699 5700 5702 5703 5704 5705 5706 5706 5707 5707 5707 5706 5705 5704 5703 5702 5701 5699 5698 5696 5694 5692 5690 5688 5685 5683 5680 5677 5675 5672
5662 5664 5666 5668 5671 5674 5676 5679 5680 5682 5684 5686 5687 5689 5691 5693 5694 5695 5696 5697 5697 5698 5698 5698 5698 5697 5696 5695 5694 5693 5692 5691 5689 5688 5686 5684 5682 5679 5676 5674 5671 5668 5665 5663
5658 5660 5662 5664 5666 5669 5671 5673 5674 5676 5677 5679 5680 5682 5683 5685 5687 5687 5688 5689 5689 5690 5690 5690 5689 5689 5688 5687 5685 5684 5683 5682 5680 5678 5676 5674 5672 5670 5667 5664 5662 5659 5656 5653
5654 5656 5658 5660 5661 5663 5665 5667 5668 5670 5671 5673 5674 5676 5677 5678 5679 5680 5680 5681 5681 5681 5682 5681 5681 5680 5680 5678 5677 5676 5674 5673 5671 5669 5667 5665 5663 5660 5658 5655 5653 5650 5647 5644
5650 5652 5653 5655 5657 5658 5659 5661 5663 5664 5666 5667 5668 5669 5670 5671 5672 5672 5673 5673 5674 5674 5674 5673 5673 5672 5672 5671 5669 5667 5665 5664 5662 5660 5658 5656 5653 5651 5649 5646 5643 5640 5638 5635